| time (UTC) | temp F | wind direction | speed MPH | gust MPH | rain 1hr in | rain 24hr in | rain mn in | humidity % | barometer mb |
| 20260510133006 | 70 | 25 | 0.0 | 0.0 | 0.00 | 0.00 | 0.00 | 30 | 1013.9 |
| 20260510132504 | 70 | 25 | 0.0 | 0.0 | 0.00 | 0.00 | 0.00 | 29 | 1013.9 |
| 20260510132005 | 69 | 25 | 0.0 | 0.0 | 0.00 | 0.00 | 0.00 | 30 | 1013.9 |
| 20260510131504 | 68 | 25 | 0.0 | 0.0 | 0.00 | 0.00 | 0.00 | 31 | 1013.8 |
| 20260510131228 | 68 | 25 | 0.0 | 0.0 | 0.00 | 0.00 | 0.00 | 29 | 1013.8 |
| 20260510130505 | 67 | 25 | 0.0 | 0.0 | 0.00 | 0.00 | 0.00 | 30 | 1013.8 |
| 20260510130005 | 67 | 25 | 0.0 | 0.0 | 0.00 | 0.00 | 0.00 | 30 | 1013.7 |
| 20260510125506 | 66 | 25 | 0.0 | 0.0 | 0.00 | 0.00 | 0.00 | 31 | 1013.7 |
| 20260510125004 | 65 | 25 | 0.0 | 1.0 | 0.00 | 0.00 | 0.00 | 31 | 1013.7 |
| 20260510124727 | 65 | 25 | 0.0 | 2.0 | 0.00 | 0.00 | 0.00 | 31 | 1013.6 |
| 20260510124002 | 66 | 19 | 0.0 | 3.0 | 0.00 | 0.00 | 0.00 | 30 | 1013.6 |
| 20260510123730 | 67 | 18 | 0.0 | 3.0 | 0.00 | 0.00 | 0.00 | 28 | 1013.6 |
| 20260510123003 | 68 | 323 | 0.0 | 2.0 | 0.00 | 0.00 | 0.00 | 26 | 1013.5 |
| 20260510122505 | 69 | 157 | 0.0 | 2.0 | 0.00 | 0.00 | 0.00 | 24 | 1013.5 |
| 20260510122000 | 69 | 146 | 0.0 | 2.0 | 0.00 | 0.00 | 0.00 | 24 | 1013.4 |
| 20260510121717 | 69 | 146 | 1.0 | 3.0 | 0.00 | 0.00 | 0.00 | 24 | 1013.3 |
| 20260510120943 | 69 | 162 | 1.0 | 3.0 | 0.00 | 0.00 | 0.00 | 24 | 1013.3 |
| 20260510120436 | 69 | 152 | 1.0 | 3.0 | 0.00 | 0.00 | 0.00 | 23 | 1013.3 |
| 20260510120155 | 69 | 140 | 2.0 | 3.0 | 0.00 | 0.00 | 0.00 | 23 | 1013.2 |
| 20260510115422 | 69 | 130 | 2.0 | 4.0 | 0.00 | 0.00 | 0.00 | 23 | 1013.3 |
| 20260510114914 | 69 | 141 | 2.0 | 4.0 | 0.00 | 0.00 | 0.00 | 24 | 1013.3 |
| 20260510114409 | 69 | 165 | 2.0 | 3.0 | 0.00 | 0.00 | 0.00 | 24 | 1013.2 |
| 20260510113859 | 69 | 162 | 2.0 | 3.0 | 0.00 | 0.00 | 0.00 | 24 | 1013.1 |
| 20260510113612 | 68 | 142 | 2.0 | 4.0 | 0.00 | 0.00 | 0.00 | 25 | 1013.1 |
| 20260510112848 | 68 | 150 | 2.0 | 5.0 | 0.00 | 0.00 | 0.00 | 25 | 1013.1 |
| 20260510112557 | 67 | 148 | 2.0 | 5.0 | 0.00 | 0.00 | 0.00 | 26 | 1012.9 |
| 20260510111831 | 67 | 194 | 1.0 | 3.0 | 0.00 | 0.00 | 0.00 | 28 | 1013.1 |
| 20260510111325 | 67 | 162 | 0.0 | 1.0 | 0.00 | 0.00 | 0.00 | 28 | 1012.9 |
| 20260510111039 | 67 | 155 | 0.0 | 2.0 | 0.00 | 0.00 | 0.00 | 28 | 1012.9 |
| 20260510110305 | 67 | 155 | 1.0 | 3.0 | 0.00 | 0.00 | 0.00 | 27 | 1012.9 |
| 20260510105800 | 68 | 169 | 1.0 | 3.0 | 0.00 | 0.00 | 0.00 | 27 | 1012.8 |
| 20260510105250 | 69 | 77 | 0.0 | 1.0 | 0.00 | 0.00 | 0.00 | 26 | 1012.8 |
| 20260510105002 | 69 | 75 | 0.0 | 1.0 | 0.00 | 0.00 | 0.00 | 25 | 1012.8 |
| 20260510104238 | 69 | 75 | 1.0 | 2.0 | 0.00 | 0.00 | 0.00 | 26 | 1012.8 |
| 20260510103728 | 69 | 75 | 1.0 | 2.0 | 0.00 | 0.00 | 0.00 | 25 | 1012.8 |
| 20260510103222 | 69 | 74 | 1.0 | 2.0 | 0.00 | 0.00 | 0.00 | 25 | 1012.9 |
| 20260510102716 | 69 | 72 | 1.0 | 3.0 | 0.00 | 0.00 | 0.00 | 26 | 1012.8 |
| 20260510102205 | 69 | 68 | 1.0 | 3.0 | 0.00 | 0.00 | 0.00 | 26 | 1012.7 |
| 20260510101700 | 68 | 15 | 0.0 | 0.0 | 0.00 | 0.00 | 0.00 | 27 | 1012.7 |
| 20260510101252 | 68 | 15 | 0.0 | 0.0 | 0.00 | 0.00 | 0.00 | 27 | 1012.6 |
| 20260510100138 | 68 | 15 | 0.0 | 0.0 | 0.00 | 0.00 | 0.00 | 27 | 1012.6 |
| 20260510095631 | 68 | 15 | 0.0 | 0.0 | 0.00 | 0.00 | 0.00 | 27 | 1012.6 |
| 20260510095346 | 68 | 15 | 0.0 | 0.0 | 0.00 | 0.00 | 0.00 | 27 | 1012.6 |
| 20260510094616 | 69 | 15 | 0.0 | 0.0 | 0.00 | 0.00 | 0.00 | 27 | 1012.6 |
| 20260510094334 | 69 | 15 | 0.0 | 0.0 | 0.00 | 0.00 | 0.00 | 27 | 1012.5 |
| 20260510093600 | 69 | 15 | 0.0 | 0.0 | 0.00 | 0.00 | 0.00 | 26 | 1012.5 |
| 20260510093054 | 70 | 15 | 0.0 | 0.0 | 0.00 | 0.00 | 0.00 | 26 | 1012.5 |
| 20260510092547 | 70 | 15 | 0.0 | 0.0 | 0.00 | 0.00 | 0.00 | 25 | 1012.4 |
| 20260510092037 | 71 | 15 | 0.0 | 0.0 | 0.00 | 0.00 | 0.00 | 24 | 1012.5 |
| 20260510091531 | 72 | 151 | 0.0 | 0.0 | 0.00 | 0.00 | 0.00 | 22 | 1012.4 |
| 20260510091026 | 73 | 151 | 0.0 | 0.0 | 0.00 | 0.00 | 0.00 | 21 | 1012.4 |
| 20260510090515 | 73 | 150 | 0.0 | 0.0 | 0.00 | 0.00 | 0.00 | 21 | 1012.4 |
| 20260510090504 | 73 | 167 | 0.0 | 0.0 | 0.00 | 0.00 | 0.00 | 21 | 1012.4 |
| 20260510085504 | 73 | 167 | 1.0 | 3.0 | 0.00 | 0.00 | 0.00 | 21 | 1012.4 |
| 20260510084954 | 74 | 189 | 1.0 | 3.0 | 0.00 | 0.00 | 0.00 | 21 | 1012.4 |
| 20260510084447 | 73 | 136 | 1.0 | 3.0 | 0.00 | 0.00 | 0.00 | 21 | 1012.5 |
| 20260510083941 | 74 | 166 | 1.0 | 3.0 | 0.00 | 0.00 | 0.00 | 21 | 1012.5 |
| 20260510083431 | 74 | 120 | 2.0 | 3.0 | 0.00 | 0.00 | 0.00 | 21 | 1012.5 |
| 20260510082926 | 74 | 150 | 2.0 | 3.0 | 0.00 | 0.00 | 0.00 | 21 | 1012.5 |
| 20260510082420 | 75 | 142 | 1.0 | 3.0 | 0.00 | 0.00 | 0.00 | 20 | 1012.5 |
| 20260510082133 | 75 | 192 | 1.0 | 5.0 | 0.00 | 0.00 | 0.00 | 20 | 1012.6 |
| 20260510081624 | 75 | 131 | 2.0 | 5.0 | 0.00 | 0.00 | 0.00 | 20 | 1012.6 |
| 20260510081121 | 75 | 214 | 2.0 | 5.0 | 0.00 | 0.00 | 0.00 | 20 | 1012.7 |
| 20260510080346 | 74 | 211 | 3.0 | 7.0 | 0.00 | 0.00 | 0.00 | 21 | 1012.7 |
| 20260510075841 | 74 | 160 | 3.0 | 7.0 | 0.00 | 0.00 | 0.00 | 21 | 1012.7 |
| 20260510075558 | 74 | 144 | 2.0 | 5.0 | 0.00 | 0.00 | 0.00 | 22 | 1012.8 |
| 20260510074826 | 74 | 167 | 1.0 | 3.0 | 0.00 | 0.00 | 0.00 | 21 | 1012.7 |
| 20260510074544 | 75 | 156 | 0.0 | 2.0 | 0.00 | 0.00 | 0.00 | 21 | 1012.7 |
| 20260510073814 | 75 | 127 | 0.0 | 0.0 | 0.00 | 0.00 | 0.00 | 21 | 1012.7 |
| 20260510073303 | 75 | 89 | 0.0 | 0.0 | 0.00 | 0.00 | 0.00 | 21 | 1012.8 |
| 20260510072757 | 76 | 83 | 0.0 | 0.0 | 0.00 | 0.00 | 0.00 | 20 | 1012.8 |
| 20260510072252 | 77 | 171 | 0.0 | 1.0 | 0.00 | 0.00 | 0.00 | 20 | 1012.8 |
| 20260510071742 | 77 | 217 | 0.0 | 1.0 | 0.00 | 0.00 | 0.00 | 18 | 1012.8 |
| 20260510071235 | 77 | 197 | 0.0 | 0.0 | 0.00 | 0.00 | 0.00 | 19 | 1012.8 |
| 20260510070730 | 77 | 197 | 0.0 | 0.0 | 0.00 | 0.00 | 0.00 | 19 | 1012.8 |
| 20260510070219 | 77 | 197 | 0.0 | 0.0 | 0.00 | 0.00 | 0.00 | 18 | 1012.8 |
| 20260510065712 | 78 | 197 | 0.0 | 1.0 | 0.00 | 0.00 | 0.00 | 19 | 1012.8 |
| 20260510065207 | 78 | 208 | 0.0 | 1.0 | 0.00 | 0.00 | 0.00 | 18 | 1012.8 |
| 20260510064657 | 78 | 209 | 0.0 | 1.0 | 0.00 | 0.00 | 0.00 | 17 | 1012.7 |
| 20260510064155 | 79 | 209 | 1.0 | 2.0 | 0.00 | 0.00 | 0.00 | 17 | 1012.5 |
| 20260510063653 | 79 | 229 | 1.0 | 2.0 | 0.00 | 0.00 | 0.00 | 17 | 1012.5 |
| 20260510063150 | 80 | 221 | 2.0 | 5.0 | 0.00 | 0.00 | 0.00 | 17 | 1012.4 |
| 20260510062648 | 80 | 228 | 2.0 | 5.0 | 0.00 | 0.00 | 0.00 | 17 | 1012.3 |
| 20260510062407 | 79 | 250 | 2.0 | 5.0 | 0.00 | 0.00 | 0.00 | 17 | 1012.3 |
| 20260510061648 | 79 | 248 | 2.0 | 6.0 | 0.00 | 0.00 | 0.00 | 18 | 1012.1 |
| 20260510061148 | 78 | 238 | 2.0 | 6.0 | 0.00 | 0.00 | 0.00 | 19 | 1012.1 |
| 20260510060648 | 77 | 169 | 2.0 | 6.0 | 0.00 | 0.00 | 0.00 | 20 | 1012.1 |
| 20260510060148 | 77 | 240 | 2.0 | 6.0 | 0.00 | 0.00 | 0.00 | 21 | 1012.1 |
| 20260510055647 | 76 | 224 | 1.0 | 3.0 | 0.00 | 0.00 | 0.00 | 22 | 1012.0 |
| 20260510055149 | 76 | 189 | 0.0 | 2.0 | 0.00 | 0.00 | 0.00 | 23 | 1011.9 |
| 20260510054652 | 76 | 207 | 0.0 | 0.0 | 0.00 | 0.00 | 0.00 | 23 | 1011.6 |
| 20260510054149 | 76 | 207 | 0.0 | 0.0 | 0.00 | 0.00 | 0.00 | 22 | 1011.5 |
| 20260510054128 | 76 | 207 | 0.0 | 0.0 | 0.00 | 0.00 | 0.00 | 23 | 1011.4 |
| 20260510053147 | 77 | 207 | 0.0 | 1.0 | 0.00 | 0.00 | 0.00 | 23 | 1011.3 |
| 20260510052858 | 77 | 207 | 0.0 | 1.0 | 0.00 | 0.00 | 0.00 | 21 | 1011.3 |
| 20260510052135 | 77 | 207 | 0.0 | 0.0 | 0.00 | 0.00 | 0.00 | 22 | 1011.3 |
| 20260510051631 | 77 | 207 | 0.0 | 0.0 | 0.00 | 0.00 | 0.00 | 22 | 1011.3 |
| 20260510051131 | 77 | 207 | 0.0 | 0.0 | 0.00 | 0.00 | 0.00 | 21 | 1011.3 |
| 20260510050629 | 78 | 207 | 0.0 | 2.0 | 0.00 | 0.00 | 0.00 | 21 | 1011.3 |
| 20260510050127 | 78 | 229 | 0.0 | 2.0 | 0.00 | 0.00 | 0.00 | 20 | 1011.2 |
| 20260510045626 | 77 | 239 | 0.0 | 0.0 | 0.00 | 0.00 | 0.00 | 21 | 1011.2 |
| 20260510045125 | 77 | 272 | 0.0 | 0.0 | 0.00 | 0.00 | 0.00 | 21 | 1011.1 |
| 20260510044624 | 78 | 272 | 0.0 | 0.0 | 0.00 | 0.00 | 0.00 | 21 | 1011.1 |
| 20260510044125 | 78 | 272 | 0.0 | 0.0 | 0.00 | 0.00 | 0.00 | 21 | 1011.0 |
| 20260510043624 | 78 | 272 | 0.0 | 0.0 | 0.00 | 0.00 | 0.00 | 20 | 1010.9 |
| 20260510043124 | 78 | 272 | 0.0 | 0.0 | 0.00 | 0.00 | 0.00 | 20 | 1010.9 |
| 20260510042618 | 79 | 272 | 0.0 | 0.0 | 0.00 | 0.00 | 0.00 | 18 | 1010.9 |
| 20260510042115 | 80 | 272 | 0.0 | 0.0 | 0.00 | 0.00 | 0.00 | 18 | 1010.9 |
| 20260510041614 | 80 | 272 | 0.0 | 0.0 | 0.00 | 0.00 | 0.00 | 18 | 1010.8 |
| 20260510041111 | 81 | 272 | 0.0 | 0.0 | 0.00 | 0.00 | 0.00 | 17 | 1010.8 |
| 20260510040611 | 81 | 319 | 0.0 | 0.0 | 0.00 | 0.00 | 0.00 | 16 | 1010.7 |
| 20260510040111 | 82 | 319 | 0.0 | 0.0 | 0.00 | 0.00 | 0.00 | 16 | 1010.6 |
| 20260510035605 | 82 | 319 | 0.0 | 0.0 | 0.00 | 0.00 | 0.00 | 16 | 1010.5 |
| 20260510035100 | 82 | 316 | 0.0 | 0.0 | 0.00 | 0.00 | 0.00 | 16 | 1010.5 |
| 20260510034553 | 83 | 316 | 0.0 | 0.0 | 0.00 | 0.00 | 0.00 | 15 | 1010.5 |
| 20260510034054 | 83 | 316 | 0.0 | 0.0 | 0.00 | 0.00 | 0.00 | 14 | 1010.3 |
| 20260510033825 | 83 | 316 | 0.0 | 0.0 | 0.00 | 0.00 | 0.00 | 14 | 1010.2 |
| 20260510033314 | 83 | 316 | 0.0 | 0.0 | 0.00 | 0.00 | 0.00 | 14 | 1010.1 |
| 20260510032819 | 83 | 316 | 0.0 | 0.0 | 0.00 | 0.00 | 0.00 | 14 | 1010.1 |
| 20260510032317 | 83 | 316 | 0.0 | 0.0 | 0.00 | 0.00 | 0.00 | 14 | 1010.0 |
| 20260510031551 | 84 | 316 | 0.0 | 0.0 | 0.00 | 0.00 | 0.00 | 15 | 1009.9 |
| 20260510031049 | 85 | 316 | 0.0 | 0.0 | 0.00 | 0.00 | 0.00 | 14 | 1009.9 |
| 20260510030553 | 86 | 316 | 0.0 | 1.0 | 0.00 | 0.00 | 0.00 | 14 | 1009.8 |
| 20260510030050 | 86 | 316 | 0.0 | 1.0 | 0.00 | 0.00 | 0.00 | 13 | 1009.8 |
| 20260510025547 | 86 | 316 | 0.0 | 1.0 | 0.00 | 0.00 | 0.00 | 12 | 1009.8 |
| 20260510025047 | 87 | 316 | 0.0 | 0.0 | 0.00 | 0.00 | 0.00 | 12 | 1009.7 |
| 20260510024549 | 87 | 316 | 0.0 | 0.0 | 0.00 | 0.00 | 0.00 | 12 | 1009.7 |
| 20260510024048 | 88 | 316 | 0.0 | 0.0 | 0.00 | 0.00 | 0.00 | 12 | 1009.6 |
| 20260510023548 | 88 | 316 | 0.0 | 0.0 | 0.00 | 0.00 | 0.00 | 12 | 1009.5 |
| 20260510023048 | 89 | 316 | 0.0 | 2.0 | 0.00 | 0.00 | 0.00 | 11 | 1009.5 |
| 20260510022548 | 89 | 318 | 0.0 | 4.0 | 0.00 | 0.00 | 0.00 | 11 | 1009.5 |
| 20260510022310 | 90 | 276 | 0.0 | 4.0 | 0.00 | 0.00 | 0.00 | 11 | 1009.4 |
| 20260510021805 | 90 | 297 | 1.0 | 4.0 | 0.00 | 0.00 | 0.00 | 10 | 1009.5 |
| 20260510021047 | 91 | 353 | 1.0 | 5.0 | 0.00 | 0.00 | 0.00 | 10 | 1009.4 |
| 20260510020547 | 91 | 334 | 2.0 | 6.0 | 0.00 | 0.00 | 0.00 | 10 | 1009.4 |
| 20260510020048 | 92 | 334 | 2.0 | 6.0 | 0.00 | 0.00 | 0.00 | 10 | 1009.3 |
| 20260510015809 | 92 | 313 | 2.0 | 6.0 | 0.00 | 0.00 | 0.00 | 10 | 1009.3 |
| 20260510015047 | 93 | 287 | 2.0 | 7.0 | 0.00 | 0.00 | 0.00 | 10 | 1009.3 |
| 20260510014548 | 94 | 265 | 2.0 | 7.0 | 0.00 | 0.00 | 0.00 | 9 | 1009.3 |
| 20260510014048 | 94 | 283 | 1.0 | 5.0 | 0.00 | 0.00 | 0.00 | 9 | 1009.2 |
| 20260510013815 | 94 | 323 | 2.0 | 6.0 | 0.00 | 0.00 | 0.00 | 9 | 1009.2 |
| 20260510013049 | 94 | 324 | 2.0 | 6.0 | 0.00 | 0.00 | 0.00 | 9 | 1009.2 |
| 20260510012545 | 95 | 351 | 2.0 | 7.0 | 0.00 | 0.00 | 0.00 | 9 | 1009.3 |
| 20260510012311 | 95 | 276 | 3.0 | 7.0 | 0.00 | 0.00 | 0.00 | 9 | 1009.2 |
| 20260510011546 | 95 | 284 | 3.0 | 6.0 | 0.00 | 0.00 | 0.00 | 9 | 1009.2 |
| 20260510011047 | 95 | 308 | 3.0 | 6.0 | 0.00 | 0.00 | 0.00 | 9 | 1009.2 |
| 20260510010547 | 95 | 306 | 2.0 | 8.0 | 0.00 | 0.00 | 0.00 | 9 | 1009.0 |
| 20260510010047 | 95 | 269 | 2.0 | 8.0 | 0.00 | 0.00 | 0.00 | 9 | 1009.2 |
| 20260510005813 | 96 | 293 | 3.0 | 8.0 | 0.00 | 0.00 | 0.00 | 9 | 1009.0 |
| 20260510005047 | 95 | 265 | 3.0 | 8.0 | 0.00 | 0.00 | 0.00 | 9 | 1009.2 |
| 20260510004546 | 96 | 358 | 3.0 | 13.0 | 0.00 | 0.00 | 0.00 | 9 | 1009.2 |
| 20260510004045 | 96 | 285 | 4.0 | 13.0 | 0.00 | 0.00 | 0.00 | 9 | 1009.2 |
| 20260510003547 | 96 | 337 | 4.0 | 11.0 | 0.00 | 0.00 | 0.00 | 9 | 1009.2 |
| 20260510003046 | 96 | 273 | 3.0 | 9.0 | 0.00 | 0.00 | 0.00 | 9 | 1009.2 |
| 20260510002545 | 96 | 274 | 4.0 | 9.0 | 0.00 | 0.00 | 0.00 | 9 | 1009.2 |
| 20260510002045 | 96 | 288 | 4.0 | 10.0 | 0.00 | 0.00 | 0.00 | 9 | 1009.3 |
| 20260510001547 | 96 | 12 | 4.0 | 10.0 | 0.00 | 0.00 | 0.00 | 9 | 1009.3 |
| 20260510001045 | 96 | 32 | 3.0 | 8.0 | 0.00 | 0.00 | 0.00 | 9 | 1009.3 |
| 20260510000545 | 96 | 349 | 3.0 | 8.0 | 0.00 | 0.00 | 0.00 | 9 | 1009.3 |
| 20260510000314 | 97 | 290 | 3.0 | 9.0 | 0.00 | 0.00 | 0.00 | 9 | 1009.3 |
| 20260509235550 | 96 | 307 | 4.0 | 10.0 | 0.00 | 0.00 | 0.00 | 9 | 1009.3 |
| 20260509235047 | 96 | 333 | 5.0 | 10.0 | 0.00 | 0.00 | 0.00 | 9 | 1009.3 |
| 20260509234759 | 97 | 254 | 4.0 | 10.0 | 0.00 | 0.00 | 0.00 | 9 | 1009.4 |
| 20260509234255 | 98 | 281 | 2.0 | 8.0 | 0.00 | 0.00 | 0.00 | 8 | 1009.4 |
| 20260509233759 | 97 | 268 | 3.0 | 11.0 | 0.00 | 0.00 | 0.00 | 8 | 1009.5 |
| 20260509233024 | 97 | 323 | 3.0 | 11.0 | 0.00 | 0.00 | 0.00 | 8 | 1009.5 |
| 20260509232519 | 97 | 278 | 3.0 | 8.0 | 0.00 | 0.00 | 0.00 | 8 | 1009.4 |
| 20260509232008 | 97 | 335 | 5.0 | 14.0 | 0.00 | 0.00 | 0.00 | 8 | 1009.6 |
| 20260509231501 | 97 | 291 | 5.0 | 14.0 | 0.00 | 0.00 | 0.00 | 9 | 1009.6 |
| 20260509230957 | 97 | 285 | 5.0 | 9.0 | 0.00 | 0.00 | 0.00 | 8 | 1009.6 |
| 20260509230447 | 97 | 245 | 4.0 | 10.0 | 0.00 | 0.00 | 0.00 | 8 | 1009.6 |
| 20260509225941 | 97 | 282 | 3.0 | 10.0 | 0.00 | 0.00 | 0.00 | 8 | 1009.7 |
| 20260509225434 | 97 | 347 | 3.0 | 8.0 | 0.00 | 0.00 | 0.00 | 7 | 1009.8 |
| 20260509224925 | 97 | 300 | 4.0 | 10.0 | 0.00 | 0.00 | 0.00 | 8 | 1009.8 |
| 20260509224417 | 97 | 281 | 3.0 | 10.0 | 0.00 | 0.00 | 0.00 | 7 | 1009.9 |
| 20260509223913 | 97 | 276 | 2.0 | 7.0 | 0.00 | 0.00 | 0.00 | 8 | 1010.0 |
| 20260509223403 | 97 | 300 | 3.0 | 8.0 | 0.00 | 0.00 | 0.00 | 8 | 1010.0 |
| 20260509222856 | 97 | 288 | 5.0 | 10.0 | 0.00 | 0.00 | 0.00 | 8 | 1010.1 |
| 20260509222351 | 97 | 264 | 5.0 | 10.0 | 0.00 | 0.00 | 0.00 | 8 | 1010.2 |
| 20260509221841 | 97 | 260 | 4.0 | 9.0 | 0.00 | 0.00 | 0.00 | 8 | 1010.2 |
| 20260509221549 | 97 | 266 | 5.0 | 9.0 | 0.00 | 0.00 | 0.00 | 8 | 1010.3 |
| 20260509220828 | 98 | 275 | 5.0 | 13.0 | 0.00 | 0.00 | 0.00 | 8 | 1010.5 |
| 20260509220319 | 98 | 256 | 4.0 | 13.0 | 0.00 | 0.00 | 0.00 | 9 | 1010.5 |
| 20260509215813 | 98 | 191 | 1.0 | 10.0 | 0.00 | 0.00 | 0.00 | 9 | 1010.2 |
| 20260509215307 | 98 | 238 | 2.0 | 9.0 | 0.00 | 0.00 | 0.00 | 9 | 1010.5 |
| 20260509215250 | 97 | 266 | 3.0 | 10.0 | 0.00 | 0.00 | 0.00 | 9 | 1010.7 |
| 20260509214250 | 96 | 257 | 5.0 | 12.0 | 0.00 | 0.00 | 0.00 | 9 | 1010.8 |
| 20260509213745 | 97 | 217 | 4.0 | 12.0 | 0.00 | 0.00 | 0.00 | 9 | 1010.9 |
| 20260509213235 | 97 | 239 | 4.0 | 8.0 | 0.00 | 0.00 | 0.00 | 9 | 1010.9 |
| 20260509212729 | 97 | 250 | 3.0 | 8.0 | 0.00 | 0.00 | 0.00 | 9 | 1011.1 |
| 20260509212222 | 97 | 269 | 3.0 | 9.0 | 0.00 | 0.00 | 0.00 | 9 | 1011.0 |
| 20260509211714 | 96 | 235 | 4.0 | 10.0 | 0.00 | 0.00 | 0.00 | 9 | 1011.1 |
| 20260509211428 | 96 | 293 | 4.0 | 10.0 | 0.00 | 0.00 | 0.00 | 9 | 1011.2 |
| 20260509210701 | 96 | 264 | 3.0 | 9.0 | 0.00 | 0.00 | 0.00 | 9 | 1011.2 |
| 20260509210150 | 97 | 354 | 4.0 | 10.0 | 0.00 | 0.00 | 0.00 | 9 | 1011.3 |
| 20260509205905 | 97 | 10 | 4.0 | 10.0 | 0.00 | 0.00 | 0.00 | 10 | 1011.3 |
| 20260509205139 | 96 | 284 | 3.0 | 8.0 | 0.00 | 0.00 | 0.00 | 10 | 1011.4 |
| 20260509204627 | 96 | 286 | 4.0 | 11.0 | 0.00 | 0.00 | 0.00 | 10 | 1011.5 |
| 20260509204604 | 96 | 259 | 5.0 | 11.0 | 0.00 | 0.00 | 0.00 | 10 | 1011.6 |
| 20260509203616 | 96 | 275 | 4.0 | 12.0 | 0.00 | 0.00 | 0.00 | 10 | 1011.8 |
| 20260509203106 | 96 | 356 | 2.0 | 9.0 | 0.00 | 0.00 | 0.00 | 10 | 1011.8 |
| 20260509202601 | 96 | 287 | 3.0 | 9.0 | 0.00 | 0.00 | 0.00 | 10 | 1011.9 |
| 20260509202055 | 96 | 340 | 4.0 | 9.0 | 0.00 | 0.00 | 0.00 | 10 | 1012.0 |
| 20260509201544 | 96 | 214 | 3.0 | 8.0 | 0.00 | 0.00 | 0.00 | 10 | 1012.0 |
| 20260509201039 | 96 | 269 | 3.0 | 7.0 | 0.00 | 0.00 | 0.00 | 11 | 1012.1 |
| 20260509200756 | 96 | 234 | 4.0 | 10.0 | 0.00 | 0.00 | 0.00 | 11 | 1012.2 |
| 20260509200021 | 95 | 297 | 5.0 | 10.0 | 0.00 | 0.00 | 0.00 | 11 | 1012.3 |
| 20260509195516 | 95 | 253 | 4.0 | 11.0 | 0.00 | 0.00 | 0.00 | 11 | 1012.3 |
| 20260509195011 | 96 | 272 | 3.0 | 9.0 | 0.00 | 0.00 | 0.00 | 11 | 1012.4 |
| 20260509194501 | 95 | 259 | 4.0 | 11.0 | 0.00 | 0.00 | 0.00 | 11 | 1012.5 |
| 20260509193953 | 95 | 281 | 4.0 | 11.0 | 0.00 | 0.00 | 0.00 | 10 | 1012.5 |
| 20260509193707 | 96 | 250 | 3.0 | 9.0 | 0.00 | 0.00 | 0.00 | 11 | 1012.5 |
| 20260509193205 | 96 | 288 | 2.0 | 8.0 | 0.00 | 0.00 | 0.00 | 11 | 1012.6 |
| 20260509192431 | 95 | 249 | 2.0 | 8.0 | 0.00 | 0.00 | 0.00 | 11 | 1012.6 |
| 20260509191926 | 95 | 281 | 2.0 | 5.0 | 0.00 | 0.00 | 0.00 | 11 | 1012.7 |
| 20260509191640 | 94 | 238 | 2.0 | 6.0 | 0.00 | 0.00 | 0.00 | 12 | 1012.8 |
| 20260509190911 | 94 | 292 | 2.0 | 6.0 | 0.00 | 0.00 | 0.00 | 12 | 1012.8 |
| 20260509190405 | 94 | 263 | 2.0 | 6.0 | 0.00 | 0.00 | 0.00 | 12 | 1012.9 |
| 20260509185854 | 93 | 143 | 3.0 | 6.0 | 0.00 | 0.00 | 0.00 | 13 | 1013.1 |
| 20260509185349 | 93 | 276 | 3.0 | 7.0 | 0.00 | 0.00 | 0.00 | 14 | 1013.2 |
| 20260509184843 | 93 | 333 | 2.0 | 7.0 | 0.00 | 0.00 | 0.00 | 14 | 1013.3 |
| 20260509184332 | 92 | 272 | 2.0 | 5.0 | 0.00 | 0.00 | 0.00 | 14 | 1013.2 |
| 20260509184046 | 91 | 321 | 3.0 | 5.0 | 0.00 | 0.00 | 0.00 | 15 | 1013.3 |
| 20260509183321 | 91 | 264 | 3.0 | 7.0 | 0.00 | 0.00 | 0.00 | 15 | 1013.4 |
| 20260509182810 | 91 | 276 | 3.0 | 7.0 | 0.00 | 0.00 | 0.00 | 15 | 1013.5 |
| 20260509182306 | 91 | 288 | 3.0 | 7.0 | 0.00 | 0.00 | 0.00 | 15 | 1013.5 |
| 20260509181759 | 91 | 277 | 3.0 | 7.0 | 0.00 | 0.00 | 0.00 | 15 | 1013.6 |
| 20260509181245 | 91 | 302 | 2.0 | 5.0 | 0.00 | 0.00 | 0.00 | 15 | 1013.7 |
| 20260509180740 | 91 | 236 | 2.0 | 6.0 | 0.00 | 0.00 | 0.00 | 15 | 1013.7 |
| 20260509180239 | 90 | 355 | 2.0 | 6.0 | 0.00 | 0.00 | 0.00 | 15 | 1013.8 |
| 20260509175736 | 90 | 261 | 2.0 | 6.0 | 0.00 | 0.00 | 0.00 | 16 | 1013.8 |
| 20260509175238 | 89 | 282 | 2.0 | 6.0 | 0.00 | 0.00 | 0.00 | 16 | 1013.9 |
| 20260509174736 | 89 | 266 | 3.0 | 6.0 | 0.00 | 0.00 | 0.00 | 16 | 1014.0 |
| 20260509174240 | 89 | 283 | 3.0 | 6.0 | 0.00 | 0.00 | 0.00 | 16 | 1013.9 |
| 20260509173738 | 89 | 257 | 2.0 | 5.0 | 0.00 | 0.00 | 0.00 | 16 | 1014.0 |
| 20260509173236 | 89 | 256 | 1.0 | 4.0 | 0.00 | 0.00 | 0.00 | 16 | 1014.0 |
| 20260509172737 | 89 | 278 | 2.0 | 5.0 | 0.00 | 0.00 | 0.00 | 16 | 1014.0 |
| 20260509172238 | 88 | 255 | 2.0 | 5.0 | 0.00 | 0.00 | 0.00 | 16 | 1014.1 |
| 20260509171738 | 88 | 293 | 1.0 | 4.0 | 0.00 | 0.00 | 0.00 | 16 | 1014.1 |
| 20260509171237 | 88 | 285 | 2.0 | 5.0 | 0.00 | 0.00 | 0.00 | 16 | 1014.1 |
| 20260509170738 | 88 | 276 | 2.0 | 5.0 | 0.00 | 0.00 | 0.00 | 17 | 1014.1 |
| 20260509170238 | 88 | 221 | 2.0 | 5.0 | 0.00 | 0.00 | 0.00 | 17 | 1014.1 |
| 20260509165738 | 87 | 227 | 1.0 | 4.0 | 0.00 | 0.00 | 0.00 | 17 | 1014.1 |
| 20260509165232 | 87 | 272 | 1.0 | 4.0 | 0.00 | 0.00 | 0.00 | 18 | 1014.1 |
| 20260509164726 | 86 | 284 | 1.0 | 4.0 | 0.00 | 0.00 | 0.00 | 18 | 1014.2 |
| 20260509164219 | 86 | 26 | 1.0 | 4.0 | 0.00 | 0.00 | 0.00 | 18 | 1014.1 |
| 20260509163720 | 86 | 278 | 1.0 | 4.0 | 0.00 | 0.00 | 0.00 | 19 | 1014.2 |
| 20260509163216 | 85 | 274 | 1.0 | 4.0 | 0.00 | 0.00 | 0.00 | 18 | 1014.2 |
| 20260509162719 | 85 | 274 | 1.0 | 5.0 | 0.00 | 0.00 | 0.00 | 19 | 1014.2 |
| 20260509162216 | 85 | 269 | 1.0 | 5.0 | 0.00 | 0.00 | 0.00 | 19 | 1014.4 |
| 20260509161938 | 85 | 300 | 1.0 | 4.0 | 0.00 | 0.00 | 0.00 | 19 | 1014.2 |
| 20260509161218 | 85 | 153 | 1.0 | 4.0 | 0.00 | 0.00 | 0.00 | 19 | 1014.2 |
| 20260509160717 | 84 | 334 | 2.0 | 4.0 | 0.00 | 0.00 | 0.00 | 19 | 1014.2 |
| 20260509160214 | 84 | 226 | 1.0 | 4.0 | 0.00 | 0.00 | 0.00 | 20 | 1014.2 |
| 20260509155715 | 85 | 279 | 0.0 | 3.0 | 0.00 | 0.00 | 0.00 | 19 | 1014.4 |
| 20260509155211 | 84 | 277 | 0.0 | 2.0 | 0.00 | 0.00 | 0.00 | 20 | 1014.2 |
| 20260509155154 | 84 | 263 | 0.0 | 2.0 | 0.00 | 0.00 | 0.00 | 20 | 1014.4 |
| 20260509154207 | 83 | 114 | 0.0 | 2.0 | 0.00 | 0.00 | 0.00 | 21 | 1014.2 |
| 20260509153706 | 83 | 262 | 0.0 | 2.0 | 0.00 | 0.00 | 0.00 | 21 | 1014.2 |
| 20260509153202 | 84 | 273 | 0.0 | 0.0 | 0.00 | 0.00 | 0.00 | 21 | 1014.4 |
| 20260509152703 | 82 | 205 | 0.0 | 0.0 | 0.00 | 0.00 | 0.00 | 21 | 1014.4 |
| 20260509152158 | 82 | 205 | 0.0 | 0.0 | 0.00 | 0.00 | 0.00 | 21 | 1014.4 |
| 20260509151652 | 82 | 205 | 0.0 | 0.0 | 0.00 | 0.00 | 0.00 | 21 | 1014.4 |
| 20260509151147 | 82 | 205 | 0.0 | 0.0 | 0.00 | 0.00 | 0.00 | 21 | 1014.4 |
| 20260509150906 | 82 | 205 | 0.0 | 0.0 | 0.00 | 0.00 | 0.00 | 22 | 1014.4 |
| 20260509150141 | 82 | 205 | 0.0 | 0.0 | 0.00 | 0.00 | 0.00 | 21 | 1014.4 |
| 20260509145641 | 81 | 205 | 0.0 | 0.0 | 0.00 | 0.00 | 0.00 | 22 | 1014.4 |
| 20260509145140 | 81 | 205 | 0.0 | 0.0 | 0.00 | 0.00 | 0.00 | 22 | 1014.4 |
| 20260509144637 | 80 | 205 | 0.0 | 0.0 | 0.00 | 0.00 | 0.00 | 23 | 1014.4 |
| 20260509144136 | 78 | 205 | 0.0 | 0.0 | 0.00 | 0.00 | 0.00 | 26 | 1014.5 |
| 20260509144125 | 77 | 205 | 0.0 | 0.0 | 0.00 | 0.00 | 0.00 | 27 | 1014.4 |
| 20260509143136 | 76 | 234 | 0.0 | 0.0 | 0.00 | 0.00 | 0.00 | 27 | 1014.4 |
| 20260509142900 | 76 | 183 | 0.0 | 1.0 | 0.00 | 0.00 | 0.00 | 27 | 1014.2 |
| 20260509142136 | 75 | 205 | 0.0 | 1.0 | 0.00 | 0.00 | 0.00 | 28 | 1014.2 |
| 20260509141637 | 74 | 229 | 0.0 | 1.0 | 0.00 | 0.00 | 0.00 | 29 | 1014.2 |
| 20260509141136 | 73 | 231 | 0.0 | 1.0 | 0.00 | 0.00 | 0.00 | 29 | 1014.2 |
| 20260509140637 | 73 | 139 | 0.0 | 1.0 | 0.00 | 0.00 | 0.00 | 31 | 1014.1 |
| 20260509140622 | 71 | 141 | 0.0 | 2.0 | 0.00 | 0.00 | 0.00 | 31 | 1014.1 |
| 20260509135636 | 70 | 141 | 1.0 | 2.0 | 0.00 | 0.00 | 0.00 | 31 | 1014.1 |
| 20260509135137 | 69 | 147 | 1.0 | 2.0 | 0.00 | 0.00 | 0.00 | 31 | 1014.0 |
| 20260509134636 | 69 | 133 | 1.0 | 3.0 | 0.00 | 0.00 | 0.00 | 32 | 1014.0 |
| 20260509134136 | 68 | 145 | 1.0 | 3.0 | 0.00 | 0.00 | 0.00 | 32 | 1014.0 |
| 20260509133636 | 67 | 139 | 1.0 | 3.0 | 0.00 | 0.00 | 0.00 | 32 | 1013.9 |
| 20260509133356 | 67 | 140 | 1.0 | 4.0 | 0.00 | 0.00 | 0.00 | 34 | 1013.8 |